[[{"header":{"parameterUnit":"m.s-1","parameterCategory":1,"la1":30.2991,"la2":30.254,"lo1":-89.0895,"lo2":-89.0444,"dy":0.0017,"dx":0.0017,"nx":28,"ny":28,"refTime":"2024-02-12T03:00:00:Z","depth":0,"parameterNumber":2,"parameterNumberName":"U-component_of_WINDS"},"data":[0,0,0,0,0,0,0,0,0,0,0,0,0,0,0,0,0,0,0,0,0,0,0,0,0,0,0,0,0,0,0,0,0,0,0,0,0,0,0,0,0,0,0,0,0,0,0,0,0,0,0,0,0,0,0,0,0,0,7.0546,7.0547,0,7.0703,7.0705,7.0707,7.0651,7.0647,7.0644,7.064,7.0802,7.0809,7.0817,0,0,0,0,0,0,0,0,0,0,0,0,0,7.0197,7.0204,7.0545,7.0547,7.0549,7.0703,7.0705,7.0707,7.0651,7.0647,7.0643,7.0639,7.0799,7.0808,7.0817,0,0,0,0,0,0,0,0,0,0,0,0,0,7.0351,7.0206,7.0545,7.054,7.0541,7.0703,7.0705,7.0708,7.0652,7.0647,7.0642,7.0637,7.0796,7.0808,7.0819,7.0995,0,0,7.0853,7.0858,0,0,0,0,0,0,0,0,7.0342,7.0364,7.0539,7.0541,7.0542,7.0652,7.0641,7.0804,7.0654,7.061,7.064,7.0634,7.0756,7.0771,7.0812,7.1002,7.1009,7.0854,7.0861,7.0866,7.0869,0,0,0,0,0,0,0,7.0332,7.0357,7.0608,7.0541,7.0544,7.053,7.0546,7.0672,7.0711,7.0613,7.061,7.0629,7.0756,7.0801,7.0815,7.1011,7.0854,7.0864,7.0871,7.0876,7.1357,7.1362,0,0,0,0,0,0,7.032,7.0348,7.0603,7.0613,7.0427,7.0541,7.0559,7.0622,7.0709,7.0718,7.0634,7.0626,7.0784,7.0802,7.0821,7.1034,7.0866,7.0877,7.0883,7.1351,7.1358,7.1364,0,0,0,0,0,0,7.0313,7.0343,7.0596,7.048,7.0511,7.0552,7.0624,7.0628,7.0673,7.0725,7.0731,7.0672,7.0781,7.0805,7.0952,7.1039,7.0882,7.0892,7.1344,7.1353,7.1361,7.1461,0,0,0,0,0,0,7.0303,7.0341,7.0408,7.0481,7.0517,7.0725,7.0629,7.0635,7.0692,7.0684,7.0763,7.077,7.0778,7.0936,7.0964,7.1052,7.0901,7.1336,7.1348,7.1358,7.145,7.1472,7.1491,0,0,0,0,0,7.0291,7.0429,7.0412,7.0443,7.0602,7.073,7.0751,7.0757,7.07,7.0768,7.0801,7.0768,7.1025,7.0951,7.0982,7.1075,7.1331,7.1344,7.1357,7.1441,7.1468,7.1491,0,0,0,0,0,0,7.0364,7.0439,7.042,7.0586,7.0653,7.0721,7.0806,7.0785,7.0869,7.0858,7.0862,7.088,7.1033,7.1068,7.0985,7.1251,7.1169,7.1189,7.1222,7.1248,7.1268,7.1257,7.0911,0,0,0,0,0,7.04,7.0498,7.0558,7.0699,7.0733,7.0764,7.0821,7.082,7.0889,7.0917,7.0961,7.1029,7.1125,7.1188,7.128,7.1455,7.1472,7.1534,7.1555,7.1571,7.1589,7.1686,7.1715,7.1408,7.1408,7.1408,0,0,7.0474,7.0527,7.0588,7.0715,7.0766,7.0869,7.0788,7.0899,7.0976,7.0933,7.1076,7.1111,7.1188,7.1351,7.1425,7.1385,7.1678,7.1588,7.1601,7.161,7.1703,7.1732,7.1758,7.1417,7.1416,7.1414,0,0,7.0662,7.0711,7.0835,7.0889,7.0968,7.0988,7.1018,7.109,7.1112,7.1256,7.1227,7.1318,7.1483,7.1539,7.1589,7.1802,7.1775,7.1831,7.1938,7.2033,7.2057,7.2079,7.2156,7.2183,7.1848,7.1849,7.1849,0,7.0744,7.0897,7.0901,7.1016,7.1073,7.104,7.1167,7.1218,7.1323,7.1364,7.1318,7.1526,7.1575,7.1752,7.1804,7.1845,7.188,7.1822,7.2053,7.2075,7.2095,7.2169,7.2198,7.1855,7.1854,7.1854,7.1853,0,7.0995,7.1102,7.1193,7.1296,7.1363,7.1483,7.1506,7.1574,7.1568,7.1593,7.1741,7.1799,7.1902,7.1944,7.1939,7.2121,7.2094,7.2051,7.1969,7.2131,7.22,7.2228,7.1864,7.1862,7.186,7.1858,0,0,7.1233,7.1338,7.1372,7.1419,7.1505,7.1588,7.1707,7.1808,7.1867,7.1941,7.2042,7.2183,7.2145,7.2202,7.2203,7.2287,7.2453,7.2233,7.2235,7.2273,7.2659,7.2692,7.2724,7.2436,7.2441,7.2445,7.2653,0,7.1429,7.1638,7.1646,7.1837,7.1937,7.1908,7.2012,7.2077,7.2104,7.2193,7.2223,7.2324,7.2264,7.2299,7.238,7.2416,7.2531,7.2401,7.253,7.2535,7.2513,7.276,7.2795,7.2988,7.268,7.2685,7.2688,0,7.1686,7.1769,7.197,7.2043,7.2085,7.2179,7.2274,7.2359,7.2432,7.2446,7.2511,7.2501,7.2624,7.2538,7.2708,7.2619,7.2673,7.2698,7.2706,7.2719,7.2622,7.2781,7.305,7.3079,7.2731,7.2727,7.2724,0,7.1841,7.2003,7.2145,7.2186,7.2275,7.2341,7.2381,7.2449,7.2511,7.2594,7.2634,7.273,7.2783,7.2858,7.2874,7.281,7.3046,7.296,7.3062,7.3062,7.3113,7.3109,7.3395,7.3146,7.3146,7.3145,7.3144,0,7.206,7.2184,7.2216,7.2303,7.2443,7.2451,7.2589,7.2624,7.2686,7.278,7.2761,7.285,7.2865,7.2958,7.2972,7.3112,7.3135,7.3151,7.3153,7.3153,7.3152,7.3189,7.3176,7.3153,7.3151,7.315,7.3148,0,7.2257,7.2283,7.2436,7.2508,7.2529,7.2629,7.2691,7.2775,7.2801,7.2921,7.2949,7.299,7.3098,7.3122,7.3251,7.326,7.3426,7.3415,7.3402,7.3401,7.3502,7.3493,7.3822,7.3867,7.3588,7.359,7.3592,0,7.2395,7.249,7.2573,7.2635,7.2679,7.2779,7.2842,7.2854,7.2921,7.3012,7.3086,7.3193,7.3278,7.3454,7.3495,7.3594,7.3585,7.3694,7.36,7.3597,7.3588,7.3583,7.3593,7.3712,7.3715,7.3717,7.3719,0,7.2638,7.2647,7.2738,7.2835,7.2911,7.2988,7.306,7.3113,7.3135,7.3211,7.3322,7.3389,7.3521,7.3628,7.3727,7.3769,7.3749,7.3749,7.3778,7.3779,7.3768,7.3777,7.3452,7.3741,7.3739,7.3737,7.3736,7.3735,7.2811,7.2895,7.2967,7.307,7.3127,7.3196,7.3279,7.3316,7.3409,7.3518,7.3519,7.3641,7.3714,7.3845,7.3893,7.3989,7.3955,7.3997,7.4008,7.4018,7.4028,7.3753,7.4007,7.4007,7.4006,7.4006,7.4005,0,7.3054,7.31,7.3194,7.3298,7.3379,7.3353,7.3433,7.3503,7.3611,7.368,7.3766,7.3894,7.3998,7.4048,7.4151,7.4218,7.4212,7.4245,7.424,7.4251,7.4051,7.4017,7.4249,7.4248,7.4248,7.4248,7.4248,7.4248,7.3191,7.3332,7.335,7.352,7.3564,7.3684,7.3732,7.3796,7.3852,7.3996,7.4083,7.4115,7.4177,7.4284,7.4379,7.4391,7.443,7.4468,7.4476,7.4289,7.4265,7.4241,7.4208,7.4477,7.4477,7.4668,7.4669,7.4671]},{"header":{"parameterUnit":"m.s-1","parameterCategory":1,"la1":30.2991,"la2":30.254,"lo1":-89.0895,"lo2":-89.0444,"dy":0.0017,"dx":0.0017,"nx":28,"ny":28,"refTime":"2024-02-12T03:00:00:Z","depth":0,"parameterNumber":3,"parameterNumberName":"V-component_of_WINDS"},"data":[0,0,0,0,0,0,0,0,0,0,0,0,0,0,0,0,0,0,0,0,0,0,0,0,0,0,0,0,0,0,0,0,0,0,0,0,0,0,0,0,0,0,0,0,0,0,0,0,0,0,0,0,0,0,0,0,0,0,-5.8474,-5.8475,0,-5.8628,-5.863,-5.8632,-5.861,-5.8607,-5.8604,-5.8602,-5.876,-5.8766,-5.8773,0,0,0,0,0,0,0,0,0,0,0,0,0,-5.8159,-5.8165,-5.8473,-5.8475,-5.8477,-5.8628,-5.863,-5.8632,-5.861,-5.8607,-5.8604,-5.8601,-5.8758,-5.8766,-5.8774,0,0,0,0,0,0,0,0,0,0,0,0,0,-5.8303,-5.8167,-5.8473,-5.8484,-5.8487,-5.8628,-5.863,-5.8633,-5.8611,-5.8607,-5.8603,-5.8599,-5.8755,-5.8765,-5.8775,-5.8914,0,0,-5.8805,-5.8809,0,0,0,0,0,0,0,0,-5.8295,-5.8315,-5.8481,-5.8484,-5.8487,-5.8596,-5.8577,-5.8727,-5.8612,-5.8564,-5.8602,-5.8597,-5.8708,-5.8722,-5.876,-5.8921,-5.8928,-5.8806,-5.8812,-5.8816,-5.8819,0,0,0,0,0,0,0,-5.8285,-5.8308,-5.8535,-5.8483,-5.8487,-5.8482,-5.8498,-5.8606,-5.8656,-5.8568,-5.8566,-5.8585,-5.8709,-5.875,-5.8763,-5.893,-5.8806,-5.8815,-5.8821,-5.8825,-5.9216,-5.922,0,0,0,0,0,0,-5.8272,-5.83,-5.853,-5.8539,-5.8379,-5.8491,-5.8509,-5.8565,-5.8655,-5.8665,-5.8588,-5.8583,-5.8735,-5.8752,-5.8769,-5.8939,-5.8816,-5.8826,-5.8831,-5.9211,-5.9217,-5.9221,0,0,0,0,0,0,-5.8265,-5.8293,-5.8523,-5.8419,-5.8448,-5.85,-5.8563,-5.857,-5.861,-5.867,-5.8679,-5.862,-5.8733,-5.8755,-5.8878,-5.8944,-5.883,-5.8839,-5.9206,-5.9213,-5.9219,-5.9279,0,0,0,0,0,0,-5.8256,-5.829,-5.8344,-5.8421,-5.8454,-5.8631,-5.8567,-5.8576,-5.8628,-5.8623,-5.8703,-5.8712,-5.8731,-5.8864,-5.8888,-5.8955,-5.8847,-5.92,-5.9209,-5.9217,-5.9271,-5.9287,-5.93,0,0,0,0,0,-5.8245,-5.8354,-5.8346,-5.8374,-5.8521,-5.8634,-5.8653,-5.8673,-5.8633,-5.8687,-5.8726,-5.871,-5.8933,-5.8877,-5.8904,-5.8975,-5.9196,-5.9207,-5.9216,-5.9265,-5.9284,-5.9299,0,0,0,0,0,0,-5.8283,-5.8364,-5.8357,-5.8493,-5.8557,-5.863,-5.8699,-5.8692,-5.8768,-5.8761,-5.8782,-5.88,-5.8925,-5.8962,-5.8899,-5.9115,-5.9059,-5.9075,-5.9086,-5.9105,-5.9119,-5.9107,-5.8855,0,0,0,0,0,-5.8307,-5.8392,-5.8458,-5.8572,-5.8605,-5.8647,-5.8697,-5.8706,-5.8773,-5.88,-5.8848,-5.8913,-5.8998,-5.9053,-5.9135,-5.9276,-5.9294,-5.9339,-5.9353,-5.9365,-5.9378,-5.9457,-5.9478,-5.9254,-5.9254,-5.9254,0,0,-5.8357,-5.8413,-5.8465,-5.8581,-5.8632,-5.872,-5.867,-5.8764,-5.883,-5.8814,-5.8934,-5.8972,-5.9046,-5.918,-5.9241,-5.9215,-5.9444,-5.9377,-5.9386,-5.9394,-5.947,-5.9491,-5.951,-5.9261,-5.926,-5.9259,0,0,-5.8495,-5.8545,-5.8646,-5.8698,-5.8776,-5.8803,-5.8827,-5.8902,-5.8927,-5.9048,-5.9038,-5.9117,-5.9262,-5.9316,-5.9362,-5.9522,-5.9511,-5.9548,-5.9623,-5.97,-5.9717,-5.9733,-5.9791,-5.9811,-5.9561,-5.9561,-5.9562,0,-5.8548,-5.868,-5.8699,-5.8796,-5.8847,-5.8838,-5.8941,-5.8991,-5.9091,-5.9127,-5.9096,-5.928,-5.9329,-5.9476,-5.9515,-5.9553,-5.9582,-5.9539,-5.9713,-5.9729,-5.9744,-5.98,-5.9821,-5.9566,-5.9565,-5.9565,-5.9564,0,-5.8742,-5.8834,-5.8906,-5.9004,-5.9064,-5.9163,-5.9198,-5.9257,-5.9262,-5.9292,-5.9416,-5.9475,-5.9569,-5.9605,-5.961,-5.9753,-5.9734,-5.9708,-5.9652,-5.9769,-5.9822,-5.9843,-5.9571,-5.957,-5.9569,-5.9568,0,0,-5.8907,-5.9015,-5.9041,-5.9086,-5.9171,-5.9243,-5.9342,-5.9434,-5.9484,-5.9554,-5.9638,-5.9762,-5.9739,-5.9792,-5.9803,-5.9871,-5.9995,-5.9837,-5.9839,-5.9864,-6.0157,-6.0177,-6.0201,-5.9988,-5.9992,-5.9995,-6.0151,0,-5.9053,-5.9229,-5.9249,-5.9406,-5.9491,-5.9484,-5.9571,-5.9633,-5.9665,-5.9742,-5.9777,-5.9865,-5.9827,-5.986,-5.9926,-5.9966,-6.0054,-5.9955,-6.0067,-6.0071,-6.0049,-6.0228,-6.0249,-6.0394,-6.0172,-6.0175,-6.0178,0,-5.9247,-5.9323,-5.9488,-5.9563,-5.96,-5.9677,-5.9764,-5.9838,-5.9909,-5.9927,-5.9987,-5.999,-6.0093,-6.0033,-6.0176,-6.0108,-6.0155,-6.0182,-6.0188,-6.02,-6.0131,-6.0245,-6.044,-6.0462,-6.021,-6.0208,-6.0205,0,-5.9352,-5.9495,-5.9613,-5.9651,-5.9741,-5.9796,-5.9836,-5.9903,-5.9958,-6.0034,-6.0069,-6.0156,-6.0204,-6.0271,-6.0298,-6.0252,-6.044,-6.0382,-6.0459,-6.0458,-6.0499,-6.0496,-6.0705,-6.0529,-6.0528,-6.0528,-6.0527,0,-5.9513,-5.9615,-5.9661,-5.9734,-5.9848,-5.9871,-5.9983,-6.0021,-6.0081,-6.0161,-6.016,-6.0235,-6.0265,-6.0346,-6.0367,-6.0483,-6.0504,-6.0523,-6.0527,-6.0523,-6.0521,-6.0555,-6.0545,-6.0534,-6.0532,-6.0531,-6.053,0,-5.9649,-5.9685,-5.9813,-5.9888,-5.9909,-5.999,-6.0054,-6.0125,-6.0156,-6.0257,-6.0283,-6.0332,-6.0426,-6.046,-6.0574,-6.0589,-6.0724,-6.072,-6.07,-6.0701,-6.0777,-6.0769,-6.1014,-6.1048,-6.0849,-6.0851,-6.0853,0,-5.975,-5.9829,-5.9912,-5.9966,-6.0008,-6.0095,-6.0151,-6.0177,-6.0235,-6.0322,-6.0383,-6.0477,-6.0553,-6.0705,-6.0751,-6.0839,-6.0838,-6.0917,-6.0851,-6.0845,-6.084,-6.0835,-6.0843,-6.093,-6.0932,-6.0934,-6.0935,0,-5.9926,-5.994,-6.0021,-6.0108,-6.0175,-6.0245,-6.0313,-6.0357,-6.0393,-6.0459,-6.0556,-6.0616,-6.0733,-6.0827,-6.0918,-6.0959,-6.0954,-6.0956,-6.0978,-6.0975,-6.0961,-6.0971,-6.0735,-6.095,-6.0948,-6.0947,-6.0946,-6.0946,-6.0049,-6.0118,-6.0189,-6.0279,-6.0333,-6.0396,-6.0467,-6.0507,-6.0588,-6.0687,-6.0697,-6.0802,-6.0872,-6.0993,-6.1039,-6.1121,-6.1099,-6.1132,-6.114,-6.1148,-6.1154,-6.0947,-6.1137,-6.1137,-6.1137,-6.1136,-6.1136,0,-6.0225,-6.027,-6.0353,-6.0448,-6.052,-6.0509,-6.0583,-6.0644,-6.0736,-6.0802,-6.0878,-6.099,-6.1081,-6.1135,-6.1227,-6.1283,-6.1283,-6.1306,-6.1302,-6.1312,-6.1168,-6.1139,-6.1304,-6.1304,-6.1304,-6.1304,-6.1304,-6.1304,-6.0326,-6.0443,-6.0466,-6.061,-6.0655,-6.0757,-6.0801,-6.086,-6.0913,-6.1038,-6.1115,-6.1149,-6.121,-6.1307,-6.139,-6.1404,-6.1438,-6.1464,-6.1475,-6.1339,-6.1322,-6.1306,-6.1279,-6.1471,-6.1471,-6.1613,-6.1614,-6.1615]}]]